BAW965 EGLL-EDDH

Flight info

Callsign BAW965
Flight time 1h 1m
Altitude 37000
Route BPK Q295 SOMVA DCT MAVAS DCT GASTU DCT OSTOR T904 RIBSO RIBSO7A
Aircraft A320/M-SDE3FGHIRWY/LB1

Departure

Time 2026-05-05 17:48
Airport London Heathrow Airport (EGLL)

Arrival

Time 2026-05-05 18:50
Airport Hamburg Helmut Schmidt Airport (EDDH)
Time Latitude Longitude Altitude Speed Heading
2026-05-05 17:19 51.47315 -0.48606 87 ft 0 kts 270°
2026-05-05 17:40 51.47315 -0.48603 87 ft 2 kts 270°
2026-05-05 17:40 51.47315 -0.48561 87 ft 4 kts 270°
2026-05-05 17:41 51.47316 -0.48527 87 ft 4 kts 262°
2026-05-05 17:41 51.47323 -0.48488 90 ft 4 kts 222°
2026-05-05 17:41 51.47343 -0.48476 88 ft 2 kts 180°
2026-05-05 17:41 51.47345 -0.48476 88 ft 0 kts 180°
2026-05-05 17:44 51.47342 -0.48476 88 ft 2 kts 180°
2026-05-05 17:44 51.47311 -0.48476 88 ft 6 kts 180°
2026-05-05 17:45 51.47263 -0.48476 87 ft 9 kts 180°
2026-05-05 17:45 51.47195 -0.48475 87 ft 12 kts 180°
2026-05-05 17:45 51.47101 -0.48475 87 ft 14 kts 180°
2026-05-05 17:45 51.46995 -0.48473 87 ft 16 kts 179°
2026-05-05 17:46 51.46883 -0.48472 88 ft 16 kts 179°
2026-05-05 17:46 51.46773 -0.48472 90 ft 16 kts 180°
2026-05-05 17:46 51.46676 -0.48471 87 ft 12 kts 180°
2026-05-05 17:46 51.46617 -0.48470 87 ft 6 kts 180°
2026-05-05 17:47 51.46574 -0.48470 88 ft 7 kts 180°
2026-05-05 17:47 51.46507 -0.48466 89 ft 10 kts 163°
2026-05-05 17:47 51.46477 -0.48360 89 ft 11 kts 90°
2026-05-05 17:47 51.46477 -0.48330 89 ft 6 kts 90°
2026-05-05 17:48 51.46480 -0.47920 87 ft 72 kts 90°
2026-05-05 17:48 51.46484 -0.46779 91 ft 129 kts 89°
2026-05-05 17:48 51.46487 -0.45109 146 ft 165 kts 87°
2026-05-05 17:48 51.46443 -0.43255 777 ft 167 kts 91°
2026-05-05 17:49 51.46605 -0.41455 1462 ft 165 kts 56°
2026-05-05 17:49 51.47413 -0.40066 1776 ft 184 kts 43°
2026-05-05 17:49 51.48381 -0.38534 2031 ft 208 kts 44°
2026-05-05 17:49 51.49448 -0.36760 2412 ft 233 kts 46°
2026-05-05 17:50 51.50594 -0.34766 3018 ft 249 kts 47°
2026-05-05 17:50 51.51696 -0.32580 3914 ft 254 kts 48°
2026-05-05 17:50 51.53097 -0.30870 4804 ft 257 kts 25°
2026-05-05 17:50 51.54747 -0.29715 5630 ft 262 kts 21°
2026-05-05 17:51 51.56448 -0.28600 6197 ft 265 kts 21°
2026-05-05 17:51 51.58160 -0.27479 7106 ft 267 kts 21°
2026-05-05 17:51 51.59893 -0.26339 7934 ft 271 kts 21°
2026-05-05 17:51 51.61653 -0.25177 8837 ft 276 kts 21°
2026-05-05 17:52 51.63444 -0.23993 9665 ft 281 kts 21°
2026-05-05 17:52 51.65247 -0.22798 10255 ft 292 kts 21°
2026-05-05 17:52 51.67200 -0.21506 10505 ft 315 kts 21°
2026-05-05 17:52 51.69237 -0.20014 10943 ft 328 kts 31°
2026-05-05 17:53 51.70949 -0.17528 11575 ft 337 kts 52°
2026-05-05 17:53 51.72012 -0.14144 12232 ft 343 kts 69°
2026-05-05 17:53 51.72837 -0.10519 12924 ft 346 kts 69°
2026-05-05 17:53 51.73656 -0.06848 13622 ft 350 kts 70°
2026-05-05 17:54 51.74481 -0.03133 14237 ft 353 kts 70°
2026-05-05 17:54 51.75314 0.00618 14844 ft 356 kts 70°
2026-05-05 17:54 51.76156 0.04395 15404 ft 359 kts 70°
2026-05-05 17:54 51.76997 0.08152 16005 ft 362 kts 70°
2026-05-05 17:55 51.77855 0.11984 16630 ft 365 kts 70°
2026-05-05 17:55 51.78719 0.15855 17244 ft 367 kts 70°
2026-05-05 17:55 51.79585 0.19756 17858 ft 370 kts 70°
2026-05-05 17:55 51.80455 0.23690 18437 ft 373 kts 70°
2026-05-05 17:56 51.81331 0.27657 18955 ft 377 kts 70°
2026-05-05 17:56 51.82213 0.31662 19468 ft 380 kts 70°
2026-05-05 17:56 51.83105 0.35712 19983 ft 384 kts 70°
2026-05-05 17:56 51.84005 0.39800 20486 ft 388 kts 70°
2026-05-05 17:57 51.84899 0.43872 20962 ft 391 kts 70°
2026-05-05 17:57 51.85812 0.48031 21425 ft 395 kts 70°
2026-05-05 17:57 51.86732 0.52228 21899 ft 398 kts 70°
2026-05-05 17:57 51.87658 0.56469 22365 ft 401 kts 70°
2026-05-05 17:58 51.88588 0.60744 22851 ft 404 kts 70°
2026-05-05 17:58 51.89522 0.65045 23318 ft 407 kts 70°
2026-05-05 17:58 51.90463 0.69388 23734 ft 410 kts 71°
2026-05-05 17:58 51.91409 0.73759 24144 ft 412 kts 71°
2026-05-05 17:59 51.92359 0.78155 24545 ft 415 kts 71°
2026-05-05 17:59 51.93312 0.82573 24952 ft 417 kts 71°
2026-05-05 17:59 51.94257 0.86961 25351 ft 419 kts 72°
2026-05-05 17:59 51.95215 0.91436 25751 ft 421 kts 72°
2026-05-05 18:00 51.96176 0.95931 26144 ft 423 kts 72°
2026-05-05 18:00 51.97142 1.00448 26534 ft 425 kts 72°
2026-05-05 18:00 51.98116 1.04997 26913 ft 428 kts 72°
2026-05-05 18:00 51.99090 1.09567 27277 ft 430 kts 72°
2026-05-05 18:01 52.00068 1.14176 27635 ft 433 kts 72°
2026-05-05 18:01 52.01047 1.18814 28004 ft 436 kts 72°
2026-05-05 18:01 52.02031 1.23476 28358 ft 438 kts 73°
2026-05-05 18:01 52.03010 1.28117 28712 ft 441 kts 73°
2026-05-05 18:02 52.04002 1.32843 29067 ft 444 kts 73°
2026-05-05 18:02 52.04999 1.37602 29410 ft 447 kts 73°
2026-05-05 18:02 52.06003 1.42398 29771 ft 449 kts 73°
2026-05-05 18:02 52.07009 1.47220 30101 ft 452 kts 73°
2026-05-05 18:03 52.08018 1.52071 30398 ft 455 kts 73°
2026-05-05 18:03 52.09030 1.56955 30705 ft 457 kts 73°
2026-05-05 18:03 52.10042 1.61850 31128 ft 456 kts 73°
2026-05-05 18:03 52.11050 1.66728 31570 ft 455 kts 73°
2026-05-05 18:04 52.12040 1.71530 32009 ft 454 kts 73°
2026-05-05 18:04 52.13043 1.76395 32454 ft 453 kts 73°
2026-05-05 18:04 52.14042 1.81250 32900 ft 452 kts 74°
2026-05-05 18:04 52.15036 1.86093 33339 ft 451 kts 74°
2026-05-05 18:05 52.16025 1.90932 33784 ft 450 kts 74°
2026-05-05 18:05 52.17009 1.95761 34183 ft 449 kts 74°
2026-05-05 18:05 52.17988 2.00588 34532 ft 448 kts 74°
2026-05-05 18:05 52.18963 2.05410 34857 ft 448 kts 74°
2026-05-05 18:06 52.19925 2.10176 35159 ft 448 kts 74°
2026-05-05 18:06 52.20583 2.13440 35366 ft 449 kts 74°
2026-05-05 18:06 52.21871 2.19842 35756 ft 449 kts 74°
2026-05-05 18:06 52.22844 2.24678 36046 ft 449 kts 74°
2026-05-05 18:07 52.23816 2.29513 36328 ft 449 kts 74°
2026-05-05 18:07 52.24786 2.34360 36605 ft 449 kts 74°
2026-05-05 18:07 52.25754 2.39214 36857 ft 450 kts 74°
2026-05-05 18:08 52.27676 2.48907 36961 ft 454 kts 74°
2026-05-05 18:08 52.29613 2.58722 36956 ft 455 kts 74°
2026-05-05 18:09 52.31522 2.68574 36956 ft 455 kts 75°
2026-05-05 18:09 52.33281 2.78494 36957 ft 455 kts 76°
2026-05-05 18:10 52.34982 2.88457 36953 ft 455 kts 77°
2026-05-05 18:10 52.36689 2.98351 36958 ft 455 kts 76°
2026-05-05 18:11 52.38423 3.08320 36951 ft 456 kts 76°
2026-05-05 18:11 52.40311 3.18229 36950 ft 458 kts 68°
2026-05-05 18:12 52.42991 3.27707 36944 ft 459 kts 67°
2026-05-05 18:12 52.45670 3.37208 36942 ft 459 kts 67°
2026-05-05 18:13 52.48317 3.46664 36944 ft 460 kts 67°
2026-05-05 18:13 52.50949 3.56228 36946 ft 460 kts 69°
2026-05-05 18:14 52.53433 3.65901 36947 ft 460 kts 70°
2026-05-05 18:14 52.55867 3.75618 36949 ft 460 kts 70°
2026-05-05 18:15 52.58326 3.85336 36948 ft 461 kts 69°
2026-05-05 18:15 52.60782 3.95001 36949 ft 461 kts 69°
2026-05-05 18:16 52.63245 4.04747 36949 ft 461 kts 70°
2026-05-05 18:16 52.65696 4.14519 36944 ft 462 kts 70°
2026-05-05 18:17 52.68142 4.24299 36945 ft 462 kts 70°
2026-05-05 18:17 52.70585 4.34094 36946 ft 462 kts 70°
2026-05-05 18:18 52.73019 4.43903 36946 ft 462 kts 70°
2026-05-05 18:18 52.75434 4.53659 36949 ft 462 kts 70°
2026-05-05 18:19 52.77859 4.63500 36953 ft 463 kts 70°
2026-05-05 18:19 52.80266 4.73361 36957 ft 463 kts 70°
2026-05-05 18:20 52.82665 4.83235 36957 ft 463 kts 70°
2026-05-05 18:20 52.85061 4.93138 36954 ft 464 kts 70°
2026-05-05 18:21 52.87441 5.02975 36952 ft 464 kts 70°
2026-05-05 18:21 52.89833 5.12906 36946 ft 464 kts 70°
2026-05-05 18:22 52.92210 5.22848 36945 ft 464 kts 70°
2026-05-05 18:22 52.94583 5.32810 36946 ft 465 kts 70°
2026-05-05 18:23 52.96933 5.42726 36940 ft 465 kts 70°
2026-05-05 18:23 52.99297 5.52725 36944 ft 465 kts 71°
2026-05-05 18:24 53.01646 5.62740 36948 ft 466 kts 71°
2026-05-05 18:24 53.03984 5.72772 36947 ft 466 kts 71°
2026-05-05 18:25 53.06323 5.82827 36950 ft 466 kts 71°
2026-05-05 18:25 53.08661 5.92892 36952 ft 467 kts 71°
2026-05-05 18:26 53.10987 6.02988 36947 ft 467 kts 71°
2026-05-05 18:26 53.13304 6.13096 36943 ft 468 kts 71°
2026-05-05 18:27 53.15615 6.23222 36931 ft 468 kts 71°
2026-05-05 18:27 53.17529 6.31665 36930 ft 468 kts 71°
2026-05-05 18:28 53.20977 6.46919 36926 ft 469 kts 71°
2026-05-05 18:28 53.23267 6.57117 36927 ft 469 kts 71°
2026-05-05 18:29 53.25546 6.67324 36928 ft 469 kts 71°
2026-05-05 18:29 53.27829 6.77547 36928 ft 470 kts 71°
2026-05-05 18:30 53.30101 6.87787 36930 ft 470 kts 71°
2026-05-05 18:30 53.32355 6.98054 36935 ft 470 kts 71°
2026-05-05 18:31 53.37062 7.19619 36934 ft 469 kts 71°
2026-05-05 18:32 53.39291 7.29885 36932 ft 469 kts 71°
2026-05-05 18:32 53.41514 7.40172 36903 ft 469 kts 71°
2026-05-05 18:33 53.42628 7.45348 35934 ft 479 kts 72°
2026-05-05 18:33 53.43423 7.50812 34925 ft 483 kts 88°
2026-05-05 18:33 53.43550 7.56421 34219 ft 482 kts 92°
2026-05-05 18:33 53.43612 7.62044 33554 ft 482 kts 93°
2026-05-05 18:34 53.43671 7.67658 32929 ft 480 kts 93°
2026-05-05 18:34 53.43722 7.73253 32211 ft 480 kts 93°
2026-05-05 18:34 53.43763 7.78781 31445 ft 481 kts 93°
2026-05-05 18:34 53.43799 7.84398 30681 ft 482 kts 93°
2026-05-05 18:35 53.43829 7.90023 29930 ft 482 kts 92°
2026-05-05 18:35 53.43857 7.95638 29074 ft 482 kts 92°
2026-05-05 18:35 53.43886 8.01257 28239 ft 481 kts 92°
2026-05-05 18:35 53.43917 8.06858 27428 ft 479 kts 92°
2026-05-05 18:36 53.43948 8.12439 26640 ft 477 kts 92°
2026-05-05 18:36 53.43974 8.17980 25875 ft 474 kts 92°
2026-05-05 18:36 53.43996 8.23424 25140 ft 471 kts 92°
2026-05-05 18:36 53.44014 8.28894 24411 ft 468 kts 91°
2026-05-05 18:37 53.44027 8.34338 23706 ft 465 kts 91°
2026-05-05 18:37 53.44036 8.39738 22919 ft 462 kts 91°
2026-05-05 18:37 53.44043 8.45101 22113 ft 458 kts 91°
2026-05-05 18:37 53.44048 8.50421 21324 ft 454 kts 91°
2026-05-05 18:38 53.44053 8.55697 20556 ft 451 kts 91°
2026-05-05 18:38 53.44057 8.60934 19808 ft 447 kts 91°
2026-05-05 18:38 53.44055 8.70059 18531 ft 440 kts 91°
2026-05-05 18:39 53.44052 8.75102 17779 ft 436 kts 91°
2026-05-05 18:39 53.44048 8.80152 16985 ft 432 kts 91°
2026-05-05 18:39 53.44042 8.85177 16212 ft 429 kts 91°
2026-05-05 18:39 53.44035 8.90167 15454 ft 426 kts 91°
2026-05-05 18:40 53.44026 8.95119 14715 ft 423 kts 91°
2026-05-05 18:40 53.44014 9.00038 13996 ft 421 kts 91°
2026-05-05 18:40 53.43999 9.04928 13330 ft 416 kts 91°
2026-05-05 18:40 53.43983 9.09740 12747 ft 409 kts 91°
2026-05-05 18:41 53.43964 9.14458 12168 ft 401 kts 91°
2026-05-05 18:41 53.43941 9.19025 11593 ft 391 kts 91°
2026-05-05 18:41 53.43916 9.23462 10985 ft 370 kts 91°
2026-05-05 18:41 53.43893 9.27679 10398 ft 353 kts 91°
2026-05-05 18:42 53.43870 9.31716 9822 ft 340 kts 91°
2026-05-05 18:42 53.43847 9.35624 9191 ft 330 kts 91°
2026-05-05 18:42 53.43823 9.39412 8566 ft 321 kts 91°
2026-05-05 18:42 53.43800 9.43114 7947 ft 313 kts 91°
2026-05-05 18:43 53.43775 9.46725 7349 ft 307 kts 91°
2026-05-05 18:43 53.43749 9.50247 6761 ft 301 kts 91°
2026-05-05 18:43 53.43725 9.53719 6172 ft 295 kts 90°
2026-05-05 18:43 53.43716 9.57129 5548 ft 289 kts 86°
2026-05-05 18:44 53.44168 9.60356 4945 ft 283 kts 65°
2026-05-05 18:44 53.45242 9.63064 4331 ft 277 kts 50°
2026-05-05 18:44 53.46456 9.65478 3709 ft 272 kts 50°
2026-05-05 18:44 53.47668 9.67892 3173 ft 271 kts 50°
2026-05-05 18:45 53.48850 9.70255 3027 ft 254 kts 50°
2026-05-05 18:45 53.49927 9.72413 3026 ft 229 kts 50°
2026-05-05 18:45 53.50908 9.74382 3032 ft 215 kts 50°
2026-05-05 18:45 53.51854 9.76295 3032 ft 207 kts 50°
2026-05-05 18:46 53.52753 9.78109 2901 ft 199 kts 50°
2026-05-05 18:46 53.53633 9.79878 2670 ft 196 kts 50°
2026-05-05 18:46 53.54500 9.81618 2437 ft 191 kts 51°
2026-05-05 18:46 53.55313 9.83251 2170 ft 176 kts 50°
2026-05-05 18:47 53.56066 9.84765 1931 ft 162 kts 50°
2026-05-05 18:47 53.56759 9.86158 1717 ft 150 kts 51°
2026-05-05 18:47 53.57399 9.87446 1545 ft 138 kts 51°
2026-05-05 18:47 53.58005 9.88666 1348 ft 135 kts 51°
2026-05-05 18:48 53.58602 9.89868 1155 ft 134 kts 51°
2026-05-05 18:48 53.59193 9.91059 941 ft 132 kts 50°
2026-05-05 18:48 53.59784 9.92252 748 ft 133 kts 50°
2026-05-05 18:48 53.60369 9.93432 576 ft 133 kts 50°
2026-05-05 18:49 53.60963 9.94630 396 ft 133 kts 51°
2026-05-05 18:49 53.61560 9.95835 217 ft 136 kts 50°
2026-05-05 18:49 53.62155 9.97038 50 ft 128 kts 49°
2026-05-05 18:49 53.62627 9.97992 48 ft 81 kts 50°
2026-05-05 18:50 53.62899 9.98542 49 ft 50 kts 51°
2026-05-05 18:50 53.63044 9.98842 49 ft 11 kts 51°
2026-05-05 18:50 53.63095 9.98941 51 ft 12 kts 48°
2026-05-05 18:50 53.63185 9.99119 51 ft 23 kts 50°
2026-05-05 18:51 53.63269 9.99304 52 ft 19 kts 62°
2026-05-05 18:51 53.63289 9.99524 50 ft 13 kts 99°
2026-05-05 18:51 53.63279 9.99632 50 ft 1 kts 99°
2026-05-05 18:52 53.63278 9.99645 50 ft 3 kts 99°
2026-05-05 18:52 53.63269 9.99703 47 ft 7 kts 115°
2026-05-05 18:53 53.63209 9.99775 49 ft 13 kts 155°
2026-05-05 18:53 53.63121 9.99849 50 ft 16 kts 153°
2026-05-05 18:53 53.63039 9.99921 50 ft 11 kts 152°
2026-05-05 18:53 53.62967 9.99983 50 ft 10 kts 154°
2026-05-05 18:54 53.62910 10.00041 50 ft 10 kts 125°
2026-05-05 18:54 53.62945 10.00131 51 ft 7 kts 34°
2026-05-05 18:54 53.62989 10.00177 49 ft 7 kts 32°
2026-05-05 18:54 53.62980 10.00248 48 ft 7 kts 121°
2026-05-05 18:55 53.62967 10.00284 51 ft 1 kts 121°
2026-05-05 18:55 53.62966 10.00287 51 ft 0 kts 121°